| time (UTC) | temp F | wind direction | speed MPH | gust MPH | rain 1hr in | rain 24hr in | rain mn in | humidity % | barometer mb |
| 20260905224534 | 78 | 227 | 1.0 | 2.0 | 0.00 | 0.00 | 0.00 | 55 | 1018.7 |
| 20260905223531 | 78 | 180 | 0.0 | 2.0 | 0.00 | 0.00 | 0.00 | 57 | 1018.7 |
| 20260905222528 | 79 | 218 | 0.0 | 2.0 | 0.00 | 0.00 | 0.00 | 56 | 1018.8 |
| 20260905221526 | 79 | 233 | 3.0 | 4.0 | 0.00 | 0.00 | 0.00 | 56 | 1018.7 |
| 20260905220523 | 80 | 224 | 2.0 | 4.0 | 0.00 | 0.00 | 0.00 | 56 | 1018.6 |
| 20260905215521 | 79 | 233 | 2.0 | 4.0 | 0.00 | 0.00 | 0.00 | 56 | 1018.7 |
| 20260905214518 | 80 | 210 | 1.0 | 2.0 | 0.00 | 0.00 | 0.00 | 56 | 1018.8 |
| 20260905213515 | 80 | 225 | 2.0 | 4.0 | 0.00 | 0.00 | 0.00 | 55 | 1018.9 |
| 20260905212613 | 80 | 244 | 2.0 | 4.0 | 0.00 | 0.00 | 0.00 | 56 | 1019.0 |
| 20260905211611 | 79 | 0.0 | 0.0 | 0.00 | 0.00 | 0.00 | 60 | 1019.0 | |
| 20260905210608 | 79 | 211 | 1.0 | 2.0 | 0.00 | 0.00 | 0.00 | 61 | 1018.9 |
| 20260905205605 | 80 | 0.0 | 0.0 | 0.00 | 0.00 | 0.00 | 62 | 1019.1 | |
| 20260905204603 | 79 | 180 | 0.0 | 2.0 | 0.00 | 0.00 | 0.00 | 64 | 1019.1 |
| 20260905203600 | 80 | 211 | 2.0 | 4.0 | 0.00 | 0.00 | 0.00 | 62 | 1019.1 |
| 20260905202557 | 80 | 269 | 2.0 | 2.0 | 0.00 | 0.00 | 0.00 | 62 | 1019.1 |
| 20260905201555 | 81 | 312 | 1.0 | 2.0 | 0.00 | 0.00 | 0.00 | 62 | 1019.1 |
| 20260905200552 | 80 | 294 | 2.0 | 4.0 | 0.00 | 0.00 | 0.00 | 63 | 1019.0 |
| 20260905195550 | 80 | 303 | 3.0 | 4.0 | 0.00 | 0.00 | 0.00 | 65 | 1018.9 |
| 20260905194548 | 80 | 305 | 2.0 | 6.0 | 0.00 | 0.00 | 0.00 | 73 | 1019.0 |
| 20260905193545 | 80 | 309 | 3.0 | 6.0 | 0.00 | 0.00 | 0.00 | 75 | 1019.0 |
| 20260905192542 | 81 | 312 | 2.0 | 4.0 | 0.00 | 0.00 | 0.00 | 75 | 1019.0 |
| 20260905191539 | 81 | 340 | 2.0 | 4.0 | 0.00 | 0.00 | 0.00 | 74 | 1018.9 |
| 20260905190537 | 81 | 344 | 1.0 | 4.0 | 0.00 | 0.00 | 0.00 | 73 | 1018.8 |
| 20260905185534 | 81 | 313 | 3.0 | 7.0 | 0.00 | 0.00 | 0.00 | 74 | 1018.8 |
| 20260905184532 | 82 | 336 | 3.0 | 7.0 | 0.00 | 0.00 | 0.00 | 72 | 1018.8 |
| 20260905183529 | 82 | 346 | 3.0 | 6.0 | 0.00 | 0.00 | 0.00 | 72 | 1018.7 |
| 20260905182526 | 82 | 19 | 4.0 | 7.0 | 0.00 | 0.00 | 0.00 | 71 | 1018.8 |
| 20260905181524 | 83 | 333 | 3.0 | 6.0 | 0.00 | 0.00 | 0.00 | 69 | 1018.6 |
| 20260905180521 | 84 | 341 | 3.0 | 6.0 | 0.00 | 0.00 | 0.00 | 66 | 1018.5 |
| 20260905175519 | 84 | 22 | 4.0 | 7.0 | 0.00 | 0.00 | 0.00 | 65 | 1018.5 |
| 20260905174516 | 85 | 3 | 3.0 | 6.0 | 0.00 | 0.00 | 0.00 | 63 | 1018.5 |
| 20260905173614 | 85 | 360 | 3.0 | 6.0 | 0.00 | 0.00 | 0.00 | 58 | 1018.5 |
| 20260905172611 | 85 | 345 | 5.0 | 8.0 | 0.00 | 0.00 | 0.00 | 56 | 1018.5 |
| 20260905171609 | 86 | 17 | 5.0 | 8.0 | 0.00 | 0.00 | 0.00 | 55 | 1018.4 |
| 20260905170606 | 86 | 42 | 3.0 | 7.0 | 0.00 | 0.00 | 0.00 | 54 | 1018.6 |
| 20260905165603 | 86 | 20 | 5.0 | 9.0 | 0.00 | 0.00 | 0.00 | 52 | 1018.4 |
| 20260905164601 | 86 | 353 | 4.0 | 9.0 | 0.00 | 0.00 | 0.00 | 51 | 1018.3 |
| 20260905163558 | 87 | 337 | 5.0 | 8.0 | 0.00 | 0.00 | 0.00 | 50 | 1018.3 |
| 20260905162555 | 87 | 335 | 6.0 | 11.0 | 0.00 | 0.00 | 0.00 | 50 | 1018.3 |
| 20260905161553 | 87 | 21 | 5.0 | 11.0 | 0.00 | 0.00 | 0.00 | 48 | 1018.4 |
| 20260905160550 | 88 | 5 | 6.0 | 11.0 | 0.00 | 0.00 | 0.00 | 45 | 1018.4 |
| 20260905155548 | 88 | 16 | 5.0 | 11.0 | 0.00 | 0.00 | 0.00 | 43 | 1018.5 |
| 20260905154545 | 89 | 71 | 6.0 | 15.0 | 0.00 | 0.00 | 0.00 | 42 | 1018.5 |
| 20260905153543 | 89 | 38 | 6.0 | 14.0 | 0.00 | 0.00 | 0.00 | 42 | 1018.3 |
| 20260905152540 | 89 | 52 | 5.0 | 11.0 | 0.00 | 0.00 | 0.00 | 41 | 1018.4 |
| 20260905151537 | 89 | 23 | 6.0 | 13.0 | 0.00 | 0.00 | 0.00 | 42 | 1018.5 |
| 20260905150535 | 89 | 319 | 6.0 | 13.0 | 0.00 | 0.00 | 0.00 | 42 | 1018.6 |
| 20260905145532 | 90 | 52 | 6.0 | 11.0 | 0.00 | 0.00 | 0.00 | 40 | 1018.5 |
| 20260905144559 | 92 | 86 | 4.0 | 11.0 | 0.00 | 0.00 | 0.00 | 38 | 1018.7 |
| 20260905143557 | 92 | 72 | 5.0 | 15.0 | 0.00 | 0.00 | 0.00 | 38 | 1018.7 |
| 20260905142554 | 92 | 22 | 4.0 | 11.0 | 0.00 | 0.00 | 0.00 | 37 | 1018.8 |
| 20260905141552 | 91 | 54 | 6.0 | 14.0 | 0.00 | 0.00 | 0.00 | 37 | 1018.8 |
| 20260905140549 | 92 | 28 | 5.0 | 11.0 | 0.00 | 0.00 | 0.00 | 37 | 1018.8 |
| 20260905135547 | 92 | 3 | 5.0 | 11.0 | 0.00 | 0.00 | 0.00 | 37 | 1018.9 |
| 20260905134544 | 92 | 33 | 5.0 | 14.0 | 0.00 | 0.00 | 0.00 | 36 | 1019.0 |
| 20260905133541 | 92 | 66 | 6.0 | 16.0 | 0.00 | 0.00 | 0.00 | 36 | 1018.8 |
| 20260905132539 | 93 | 133 | 4.0 | 14.0 | 0.00 | 0.00 | 0.00 | 35 | 1019.0 |
| 20260905131536 | 94 | 127 | 3.0 | 7.0 | 0.00 | 0.00 | 0.00 | 34 | 1019.0 |
| 20260905130534 | 92 | 15 | 6.0 | 15.0 | 0.00 | 0.00 | 0.00 | 35 | 1019.1 |
| 20260905125531 | 92 | 103 | 6.0 | 11.0 | 0.00 | 0.00 | 0.00 | 35 | 1019.1 |
| 20260905124528 | 92 | 34 | 7.0 | 11.0 | 0.00 | 0.00 | 0.00 | 36 | 1019.1 |
| 20260905123526 | 94 | 93 | 2.0 | 6.0 | 0.00 | 0.00 | 0.00 | 34 | 1019.1 |
| 20260905122523 | 94 | 26 | 3.0 | 7.0 | 0.00 | 0.00 | 0.00 | 34 | 1019.3 |
| 20260905121521 | 93 | 57 | 4.0 | 11.0 | 0.00 | 0.00 | 0.00 | 35 | 1019.4 |
| 20260905120518 | 92 | 28 | 6.0 | 11.0 | 0.00 | 0.00 | 0.00 | 35 | 1019.3 |
| 20260905115515 | 92 | 40 | 6.0 | 11.0 | 0.00 | 0.00 | 0.00 | 34 | 1019.4 |
| 20260905114613 | 93 | 64 | 4.0 | 14.0 | 0.00 | 0.00 | 0.00 | 33 | 1019.5 |
| 20260905113610 | 94 | 151 | 2.0 | 9.0 | 0.00 | 0.00 | 0.00 | 34 | 1019.5 |
| 20260905112608 | 92 | 114 | 4.0 | 11.0 | 0.00 | 0.00 | 0.00 | 35 | 1019.5 |
| 20260905111605 | 93 | 33 | 4.0 | 9.0 | 0.00 | 0.00 | 0.00 | 36 | 1019.5 |
| 20260905110603 | 93 | 93 | 3.0 | 9.0 | 0.00 | 0.00 | 0.00 | 36 | 1019.4 |
| 20260905105600 | 93 | 131 | 3.0 | 13.0 | 0.00 | 0.00 | 0.00 | 35 | 1019.4 |
| 20260905104557 | 92 | 336 | 4.0 | 9.0 | 0.00 | 0.00 | 0.00 | 38 | 1019.3 |
| 20260905103555 | 92 | 163 | 4.0 | 11.0 | 0.00 | 0.00 | 0.00 | 39 | 1019.4 |
| 20260905102552 | 90 | 15 | 5.0 | 11.0 | 0.00 | 0.00 | 0.00 | 39 | 1019.5 |
| 20260905101550 | 92 | 1 | 4.0 | 9.0 | 0.00 | 0.00 | 0.00 | 38 | 1019.5 |
| 20260905100548 | 90 | 28 | 6.0 | 11.0 | 0.00 | 0.00 | 0.00 | 39 | 1019.4 |
| 20260905095544 | 91 | 56 | 4.0 | 8.0 | 0.00 | 0.00 | 0.00 | 38 | 1019.5 |
| 20260905094542 | 91 | 43 | 4.0 | 9.0 | 0.00 | 0.00 | 0.00 | 38 | 1019.4 |
| 20260905093539 | 90 | 346 | 4.0 | 7.0 | 0.00 | 0.00 | 0.00 | 39 | 1019.3 |
| 20260905092537 | 90 | 14 | 5.0 | 11.0 | 0.00 | 0.00 | 0.00 | 38 | 1019.4 |
| 20260905091534 | 90 | 41 | 4.0 | 9.0 | 0.00 | 0.00 | 0.00 | 38 | 1019.2 |
| 20260905090531 | 89 | 54 | 6.0 | 11.0 | 0.00 | 0.00 | 0.00 | 39 | 1019.1 |
| 20260905085529 | 90 | 57 | 5.0 | 9.0 | 0.00 | 0.00 | 0.00 | 38 | 1019.0 |
| 20260905084526 | 89 | 21 | 7.0 | 11.0 | 0.00 | 0.00 | 0.00 | 38 | 1018.9 |
| 20260905083524 | 89 | 13 | 6.0 | 11.0 | 0.00 | 0.00 | 0.00 | 38 | 1019.0 |
| 20260905082521 | 89 | 357 | 6.0 | 11.0 | 0.00 | 0.00 | 0.00 | 37 | 1018.7 |
| 20260905081518 | 89 | 350 | 7.0 | 11.0 | 0.00 | 0.00 | 0.00 | 37 | 1018.5 |
| 20260905080516 | 89 | 325 | 5.0 | 9.0 | 0.00 | 0.00 | 0.00 | 37 | 1018.4 |
| 20260905075613 | 90 | 335 | 1.0 | 4.0 | 0.00 | 0.00 | 0.00 | 42 | 1018.4 |
| 20260905074611 | 89 | 0.0 | 2.0 | 0.00 | 0.00 | 0.00 | 45 | 1018.3 | |
| 20260905073608 | 87 | 0.0 | 2.0 | 0.00 | 0.00 | 0.00 | 46 | 1018.2 | |
| 20260905072606 | 86 | 90 | 0.0 | 2.0 | 0.00 | 0.00 | 0.00 | 47 | 1018.2 |
| 20260905071603 | 88 | 0.0 | 2.0 | 0.00 | 0.00 | 0.00 | 43 | 1018.1 | |
| 20260905070601 | 86 | 293 | 0.0 | 2.0 | 0.00 | 0.00 | 0.00 | 46 | 1018.0 |
| 20260905065558 | 84 | 296 | 3.0 | 4.0 | 0.00 | 0.00 | 0.00 | 47 | 1017.9 |
| 20260905064555 | 84 | 301 | 2.0 | 4.0 | 0.00 | 0.00 | 0.00 | 47 | 1017.8 |
| 20260905063553 | 83 | 277 | 0.0 | 2.0 | 0.00 | 0.00 | 0.00 | 48 | 1017.9 |
| 20260905062550 | 82 | 284 | 2.0 | 4.0 | 0.00 | 0.00 | 0.00 | 50 | 1017.6 |
| 20260905061547 | 80 | 0.0 | 2.0 | 0.00 | 0.00 | 0.00 | 52 | 1017.7 | |
| 20260905060545 | 80 | 270 | 0.0 | 2.0 | 0.00 | 0.00 | 0.00 | 51 | 1017.5 |
| 20260905055542 | 78 | 0.0 | 0.0 | 0.00 | 0.00 | 0.00 | 54 | 1017.5 | |
| 20260905054540 | 80 | 270 | 0.0 | 2.0 | 0.00 | 0.00 | 0.00 | 51 | 1017.2 |
| 20260905053537 | 80 | 263 | 2.0 | 2.0 | 0.00 | 0.00 | 0.00 | 50 | 1017.3 |
| 20260905052534 | 80 | 240 | 2.0 | 2.0 | 0.00 | 0.00 | 0.00 | 50 | 1017.2 |
| 20260905051532 | 79 | 259 | 2.0 | 2.0 | 0.00 | 0.00 | 0.00 | 52 | 1017.0 |
| 20260905050529 | 78 | 279 | 2.0 | 2.0 | 0.00 | 0.00 | 0.00 | 54 | 1017.1 |
| 20260905045527 | 77 | 225 | 0.0 | 2.0 | 0.00 | 0.00 | 0.00 | 56 | 1017.1 |
| 20260905044524 | 77 | 267 | 1.0 | 2.0 | 0.00 | 0.00 | 0.00 | 55 | 1017.0 |
| 20260905043521 | 77 | 251 | 3.0 | 4.0 | 0.00 | 0.00 | 0.00 | 56 | 1017.0 |
| 20260905042519 | 77 | 248 | 2.0 | 2.0 | 0.00 | 0.00 | 0.00 | 56 | 1016.9 |
| 20260905041516 | 78 | 264 | 1.0 | 2.0 | 0.00 | 0.00 | 0.00 | 55 | 1016.9 |
| 20260905040614 | 77 | 266 | 1.0 | 2.0 | 0.00 | 0.00 | 0.00 | 55 | 1016.8 |
| 20260905035611 | 78 | 0.0 | 0.0 | 0.00 | 0.00 | 0.00 | 55 | 1016.9 | |
| 20260905034609 | 77 | 248 | 2.0 | 2.0 | 0.00 | 0.00 | 0.00 | 55 | 1017.0 |
| 20260905033606 | 78 | 248 | 0.0 | 2.0 | 0.00 | 0.00 | 0.00 | 55 | 1016.9 |
| 20260905032604 | 78 | 229 | 2.0 | 4.0 | 0.00 | 0.00 | 0.00 | 55 | 1016.8 |
| 20260905031601 | 77 | 243 | 1.0 | 2.0 | 0.00 | 0.00 | 0.00 | 56 | 1016.8 |
| 20260905030558 | 77 | 0.0 | 0.0 | 0.00 | 0.00 | 0.00 | 57 | 1016.6 | |
| 20260905025556 | 77 | 293 | 0.0 | 2.0 | 0.00 | 0.00 | 0.00 | 57 | 1016.7 |
| 20260905024553 | 78 | 23 | 0.0 | 2.0 | 0.00 | 0.00 | 0.00 | 55 | 1016.8 |
| 20260905023551 | 79 | 0.0 | 2.0 | 0.00 | 0.00 | 0.00 | 54 | 1016.7 | |
| 20260905022548 | 78 | 293 | 1.0 | 2.0 | 0.00 | 0.00 | 0.00 | 56 | 1016.8 |
| 20260905021545 | 77 | 0.0 | 0.0 | 0.00 | 0.00 | 0.00 | 57 | 1016.8 | |
| 20260905020543 | 78 | 0.0 | 0.0 | 0.00 | 0.00 | 0.00 | 56 | 1016.8 | |
| 20260905015540 | 78 | 0.0 | 0.0 | 0.00 | 0.00 | 0.00 | 55 | 1016.6 | |
| 20260905014538 | 78 | 0.0 | 0.0 | 0.00 | 0.00 | 0.00 | 54 | 1016.7 | |
| 20260905013535 | 77 | 0.0 | 0.0 | 0.00 | 0.00 | 0.00 | 57 | 1016.8 | |
| 20260905012533 | 77 | 0.0 | 0.0 | 0.00 | 0.00 | 0.00 | 56 | 1016.9 | |
| 20260905011530 | 78 | 244 | 2.0 | 2.0 | 0.00 | 0.00 | 0.00 | 55 | 1016.8 |
| 20260905010527 | 78 | 242 | 1.0 | 4.0 | 0.00 | 0.00 | 0.00 | 55 | 1016.9 |
| 20260905005525 | 79 | 221 | 0.0 | 4.0 | 0.00 | 0.00 | 0.00 | 54 | 1016.9 |
| 20260905004522 | 79 | 224 | 2.0 | 4.0 | 0.00 | 0.00 | 0.00 | 53 | 1016.9 |
| 20260905003519 | 79 | 215 | 4.0 | 7.0 | 0.00 | 0.00 | 0.00 | 54 | 1017.0 |
| 20260905002517 | 78 | 230 | 4.0 | 8.0 | 0.00 | 0.00 | 0.00 | 56 | 1017.1 |
| 20260905001614 | 79 | 222 | 3.0 | 6.0 | 0.00 | 0.00 | 0.00 | 56 | 1017.1 |
| 20260905000612 | 78 | 180 | 2.0 | 2.0 | 0.00 | 0.00 | 0.00 | 57 | 1017.2 |
| 20260904235609 | 78 | 230 | 5.0 | 8.0 | 0.00 | 0.00 | 0.00 | 58 | 1017.2 |
| 20260904234607 | 77 | 218 | 1.0 | 4.0 | 0.00 | 0.00 | 0.00 | 62 | 1017.3 |
| 20260904233604 | 78 | 235 | 2.0 | 4.0 | 0.00 | 0.00 | 0.00 | 61 | 1017.4 |
| 20260904232601 | 78 | 180 | 2.0 | 4.0 | 0.00 | 0.00 | 0.00 | 61 | 1017.4 |
| 20260904231559 | 78 | 176 | 2.0 | 4.0 | 0.00 | 0.00 | 0.00 | 61 | 1017.4 |
| 20260904230556 | 78 | 230 | 3.0 | 6.0 | 0.00 | 0.00 | 0.00 | 63 | 1017.5 |
| 20260904225554 | 78 | 221 | 2.0 | 4.0 | 0.00 | 0.00 | 0.00 | 64 | 1017.5 |